Weather History for Nampa, ID

Change the Weather History Date:

Friday, February 15, 2013

  Actual Average (KBOI) Record (KBOI)
Temperature  
Mean Temperature 40 °F 36 °F  
Max Temperature 53 °F 45 °F 64 °F (2011)
Min Temperature 26 °F 28 °F 3 °F (1956)
Degree Days  
Heating Degree Days 26 29  
Month to date heating degree days 453  
Since 1 July heating degree days 3814  
Cooling Degree Days 0 0  
Month to date cooling degree days 0  
Year to date cooling degree days 0  
Moisture  
Dew Point 31 °F    
Average Humidity 78    
Maximum Humidity 100    
Minimum Humidity 44    
Precipitation  
Precipitation 0.00 in 0.03 in 0.47 in (1949)
Month to date precipitation 0.52  
Year to date precipitation 1.76  
Snow  
Snow 0.00 in 0.10 in 7.00 in (1949)
Month to date snowfall 1.8  
Since 1 July snowfall 16.6  
Snow Depth -    
Sea Level Pressure  
Sea Level Pressure 30.46 in    
Wind  
Wind Speed 2 mph (ENE)    
Max Wind Speed 9 mph    
Max Gust Speed -    
Visibility 10 miles    
Events      
T = Trace of Precipitation, MM = Missing Value Source: NWS Daily Summary

Daily Weather History Graph

Daily Weather History Graph

Search for Another Location

Airport:

Trip Planner

Search our weather history database for the weather conditions in past years. The results will help you decide how hot, cold, wet, or windy it might be!

Date:

Astronomy

Feb. 15, 2013 Rise Set
Actual Time 7:44 AM MST 6:16 PM MST
Civil Twilight 7:14 AM MST 6:46 PM MST
Nautical Twilight 6:41 AM MST 7:19 PM MST
Astronomical Twilight 6:07 AM MST 7:53 PM MST
Moon 10:10 AM MST (2/15) No Moon Set
Length of Visible Light 11h 31m
Length of Day
10h 32m
Waxing Crescent, 31% of the Moon is Illuminated
Feb 15
Waxing Crescent
Feb 17
First Quarter
Feb 25
Full
Mar 4
Last Quarter
Mar 11
New

Hourly Weather History & Observations

Time (MST) Temp. Windchill Dew Point Humidity Pressure Visibility Wind Dir Wind Speed Gust Speed Precip Events Conditions
12:15 AM 37.4 °F - 32.0 °F 81% 30.50 in 10.0 mi Calm Calm - N/A   Overcast
12:35 AM 37.4 °F - 32.0 °F 81% 30.50 in 10.0 mi Calm Calm - N/A   Overcast
12:55 AM 39.2 °F - 30.2 °F 70% 30.51 in 10.0 mi Calm Calm - N/A   Overcast
1:15 AM 39.2 °F 37.0 °F 32.0 °F 75% 30.51 in 10.0 mi NNW 3.5 mph - N/A   Overcast
1:35 AM 39.2 °F 37.0 °F 32.0 °F 75% 30.51 in 10.0 mi North 3.5 mph - N/A   Overcast
1:55 AM 39.2 °F 35.0 °F 30.2 °F 70% 30.51 in 10.0 mi North 5.8 mph - N/A   Overcast
2:15 AM 39.2 °F 35.0 °F 30.2 °F 70% 30.51 in 10.0 mi North 5.8 mph - N/A   Overcast
2:35 AM 37.4 °F 33.8 °F 28.4 °F 70% 30.51 in 10.0 mi WNW 4.6 mph - N/A   Mostly Cloudy
2:55 AM 35.6 °F 31.7 °F 32.0 °F 87% 30.51 in 10.0 mi West 4.6 mph - N/A   Clear
3:15 AM 33.8 °F - 32.0 °F 93% 30.51 in 10.0 mi Calm Calm - N/A   Clear
3:35 AM 33.8 °F - 32.0 °F 93% 30.51 in 10.0 mi Calm Calm - N/A   Clear
3:55 AM 33.8 °F 30.8 °F 32.0 °F 93% 30.50 in 10.0 mi NW 3.5 mph - N/A   Clear
4:15 AM 33.8 °F 30.8 °F 32.0 °F 93% 30.50 in 10.0 mi NNW 3.5 mph - N/A   Clear
4:35 AM 30.2 °F 25.4 °F 30.2 °F 100% 30.50 in 10.0 mi South 4.6 mph - N/A   Clear
4:55 AM 30.2 °F - 30.2 °F 100% 30.50 in 10.0 mi Calm Calm - N/A   Clear
5:15 AM 32.0 °F - 32.0 °F 100% 30.50 in 10.0 mi Calm Calm - N/A   Clear
5:35 AM 28.4 °F - 28.4 °F 100% 30.50 in 10.0 mi Calm Calm - N/A   Clear
5:55 AM 30.2 °F - 30.2 °F 100% 30.50 in 10.0 mi Calm Calm - N/A   Clear
6:15 AM 28.4 °F - 28.4 °F 100% 30.51 in 10.0 mi Calm Calm - N/A   Clear
6:35 AM 26.6 °F - 26.6 °F 100% 30.50 in 10.0 mi Calm Calm - N/A   Clear
6:55 AM 26.6 °F - 26.6 °F 100% 30.50 in 10.0 mi Calm Calm - N/A   Clear
7:15 AM 26.6 °F - 26.6 °F 100% 30.50 in 8.0 mi Calm Calm - N/A   Clear
7:35 AM 26.6 °F 22.6 °F 26.6 °F 100% 30.51 in 7.0 mi South 3.5 mph - N/A   Clear
7:55 AM 26.6 °F - 26.6 °F 100% 30.51 in 6.0 mi Calm Calm - N/A   Clear
8:15 AM 28.4 °F - 28.4 °F 100% 30.51 in 8.0 mi Calm Calm - N/A   Clear
8:35 AM 28.4 °F 24.6 °F 28.4 °F 100% 30.52 in 9.0 mi NNE 3.5 mph - N/A   Clear
8:55 AM 32.0 °F - 32.0 °F 100% 30.52 in 9.0 mi Calm Calm - N/A   Clear
9:15 AM 33.8 °F - 33.8 °F 100% 30.53 in 9.0 mi Calm Calm - N/A   Clear
9:35 AM 35.6 °F - 32.0 °F 87% 30.53 in 10.0 mi Calm Calm - N/A   Clear
9:55 AM 37.4 °F - 33.8 °F 87% 30.53 in 8.0 mi Calm Calm - N/A   Clear
10:15 AM 39.2 °F 37.0 °F 33.8 °F 81% 30.53 in 10.0 mi NW 3.5 mph - N/A   Clear
10:35 AM 39.2 °F 37.0 °F 32.0 °F 75% 30.52 in 10.0 mi NW 3.5 mph - N/A   Clear
10:55 AM 41.0 °F 36.4 °F 32.0 °F 70% 30.52 in 8.0 mi WNW 6.9 mph - N/A   Clear
11:15 AM 41.0 °F 37.1 °F 32.0 °F 70% 30.52 in 10.0 mi WNW 5.8 mph - N/A   Clear
11:55 AM 44.6 °F 40.7 °F 32.0 °F 61% 30.52 in 10.0 mi North 6.9 mph - N/A   Clear
12:15 PM 46.4 °F 43.5 °F 30.2 °F 53% 30.51 in 10.0 mi NW 5.8 mph - N/A   Clear
12:35 PM 46.4 °F 44.3 °F 32.0 °F 57% 30.51 in 10.0 mi NNE 4.6 mph - N/A   Clear
12:55 PM 48.2 °F - 30.2 °F 50% 30.50 in 10.0 mi NNW 4.6 mph - N/A   Clear
1:15 PM 48.2 °F - 30.2 °F 50% 30.49 in 10.0 mi North 5.8 mph - N/A   Clear
1:55 PM 50.0 °F - 30.2 °F 47% 30.47 in 10.0 mi Calm Calm - N/A   Clear
2:15 PM 50.0 °F - 30.2 °F 47% 30.46 in 10.0 mi East 3.5 mph - N/A   Clear
2:35 PM 50.0 °F - 30.2 °F 47% 30.45 in 10.0 mi Calm Calm - N/A   Clear
2:55 PM 50.0 °F - 32.0 °F 50% 30.44 in 10.0 mi NW 4.6 mph - N/A   Clear
3:15 PM 50.0 °F - 32.0 °F 50% 30.44 in 10.0 mi Calm Calm - N/A   Clear
3:35 PM 51.8 °F - 32.0 °F 47% 30.44 in 10.0 mi Calm Calm - N/A   Clear
3:55 PM 53.6 °F - 32.0 °F 44% 30.43 in 10.0 mi Calm Calm - N/A   Clear
4:15 PM 51.8 °F - 32.0 °F 47% 30.43 in 10.0 mi Calm Calm - N/A   Clear
4:35 PM 51.8 °F - 32.0 °F 47% 30.42 in 10.0 mi Calm Calm - N/A   Clear
4:55 PM 50.0 °F - 32.0 °F 50% 30.41 in 10.0 mi Calm Calm - N/A   Clear
5:15 PM 51.8 °F - 32.0 °F 47% 30.41 in 10.0 mi Calm Calm - N/A   Clear
5:35 PM 50.0 °F - 32.0 °F 50% 30.40 in 10.0 mi Calm Calm - N/A   Clear
5:55 PM 50.0 °F - 32.0 °F 50% 30.40 in 10.0 mi East 3.5 mph - N/A   Clear
6:15 PM 46.4 °F 45.2 °F 32.0 °F 57% 30.40 in 10.0 mi ESE 3.5 mph - N/A   Clear
6:35 PM 46.4 °F - 32.0 °F 57% 30.39 in 10.0 mi Calm Calm - N/A   Clear
6:55 PM 44.6 °F 43.1 °F 32.0 °F 61% 30.39 in 10.0 mi ENE 3.5 mph - N/A   Clear
7:15 PM 41.0 °F 38.0 °F 32.0 °F 70% 30.39 in 10.0 mi East 4.6 mph - N/A   Clear
7:35 PM 41.0 °F 39.0 °F 32.0 °F 70% 30.39 in 10.0 mi East 3.5 mph - N/A   Clear
7:55 PM 37.4 °F - 32.0 °F 81% 30.39 in 10.0 mi Calm Calm - N/A   Clear
8:15 PM 35.6 °F 30.7 °F 32.0 °F 87% 30.39 in 10.0 mi SE 5.8 mph - N/A   Clear
8:35 PM 37.4 °F 32.1 °F 33.8 °F 87% 30.39 in 10.0 mi ESE 6.9 mph - N/A   Clear
8:55 PM 37.4 °F 31.4 °F 32.0 °F 81% 30.38 in 10.0 mi ESE 8.1 mph - N/A   Clear
9:15 PM 35.6 °F 31.7 °F 32.0 °F 87% 30.38 in 10.0 mi SE 4.6 mph - N/A   Clear
9:35 PM 35.6 °F 29.2 °F 32.0 °F 87% 30.38 in 10.0 mi SE 8.1 mph - N/A   Clear
9:55 PM 33.8 °F 28.6 °F 32.0 °F 93% 30.39 in 10.0 mi SE 5.8 mph - N/A   Clear
10:15 PM 33.8 °F 28.6 °F 32.0 °F 93% 30.38 in 10.0 mi SSE 5.8 mph - N/A   Clear
10:35 PM 32.0 °F 25.6 °F 32.0 °F 100% 30.38 in 10.0 mi SE 6.9 mph - N/A   Clear
10:55 PM 32.0 °F 24.2 °F 32.0 °F 100% 30.37 in 10.0 mi SE 9.2 mph - N/A   Clear
11:15 PM 32.0 °F 26.4 °F 32.0 °F 100% 30.37 in 10.0 mi SE 5.8 mph - N/A   Clear
11:35 PM 32.0 °F 26.4 °F 32.0 °F 100% 30.37 in 10.0 mi SSE 5.8 mph - N/A   Clear
11:55 PM 32.0 °F 26.4 °F 32.0 °F 100% 30.37 in 10.0 mi SE 5.8 mph - N/A   Clear